Regional Weather Roundup
Issued by NWS Austin/San Antonio, TX

Home | Current Version | Previous Version | Text Only | Print | Product List | Glossary On
Versions: 1 2 3 4 5 6 7 8 9 10 11 12 13 14 15 16 17 18 19 20 21 22 23 24 25 26 27 28 29 30 31 32 33 34 35 36 37 38 39 40 41 42 43 44 45 46 47 48 49 50
559
ASUS44 KEWX 240002
RWREWX
SOUTH TEXAS REGIONAL WEATHER ROUNDUP
NATIONAL WEATHER SERVICE AUSTIN/SAN ANTONIO TX
700 PM CDT SUN JUL 23 2017

NOTE: "FAIR" INDICATED FEW OR NO CLOUDS BELOW 12,000 FEET WITH NO
SIGNIFICANT WEATHER AND/OR OBSTRUCTIONS TO VISIBILITY.

* - THESE STATIONS ARE NOT NWS OR FAA STATIONS...AND ARE NOT SUBJECT
    TO NWS AND FAA QUALITY CONTROL.

TXZ171-172-183>190-240100-
TEXAS HILL COUNTRY AND EDWARDS PLATEAU

CITY           SKY/WX    TMP DP  RH WIND       PRES   REMARKS
JUNCTION       LGT RAIN  76  70  82 CALM      29.96F
6HR MIN TEMP:  75; 6HR MAX TEMP: 101; 6HR PCP:  0.03;

*LLANO         CLOUDY    75  70  83 CALM      29.95S
BURNET         CLOUDY    80  67  64 SW6       29.93S
6HR MIN TEMP:  78; 6HR MAX TEMP:  94; 6HR PCP: TRACE;

*HORSESHOE BAY CLOUDY    76  69  79 CALM      29.90S
6HR MIN TEMP:  73; 6HR MAX TEMP:  99; 6HR PCP:  0.21;

*KERRVILLE     RAIN      72  69  90 CALM      29.95F
6HR MIN TEMP:  72; 6HR MAX TEMP:  97; 6HR PCP:  0.77;

*FREDERICKSBRG LGT RAIN  71  66  83 CALM      29.95F
6HR MIN TEMP:  70; 6HR MAX TEMP:  97; 6HR PCP:  0.56;

*ROCKSPRINGS   NOT AVBL
*BOERNE STAGE  CLOUDY    75  63  64 NW6       29.93F
*CASTROVILLE   CLOUDY    87  57  36 N8        29.87F
HONDO          CLOUDY    85  66  53 NE16G23   29.87F
6HR MIN TEMP:  85; 6HR MAX TEMP: 104;

*UVALDE        CLOUDY    90  66  45 NE23G30   29.86R HX  92
6HR MIN TEMP:  90; 6HR MAX TEMP: 101;

DEL RIO        SUNNY    101  57  23 E9        29.80S HX 100
6HR MIN TEMP:  95; 6HR MAX TEMP: 103;

LAUGHLIN AFB   NOT AVBL
CARRIZO SPRGS  SUNNY    102  59  24 E9G17     29.78F HX 102
*EAGLE PASS    NOT AVBL
$$

TXZ173-191>194-202-209-217>225-228-240100-
CENTRAL AND SOUTH CENTRAL TEXAS

CITY           SKY/WX    TMP DP  RH WIND       PRES   REMARKS
GEORGETOWN     MOSUNNY   97  73  46 W8        29.88R HX 107
AUSTIN/BERGSTM CLOUDY    88  70  55 N6        29.85F THUNDER HX  93
6HR MIN TEMP:  86; 6HR MAX TEMP: 101; 6HR PCP: TRACE;

AUSTIN/MABRY   CLOUDY    82  72  71 CALM      29.89R
6HR MIN TEMP:  80; 6HR MAX TEMP: 103; 6HR PCP:  0.04;

*AUSTIN/EXEC     N/A     86  72  62 CALM      29.87F HX  92
*LAGO VISTA    MOSUNNY   81  68  63 W8        29.92R
6HR MIN TEMP:  78; 6HR MAX TEMP:  98;

SAN MARCOS     CLOUDY    90  66  45 NW8       29.86S HX  92
6HR MIN TEMP:  90; 6HR MAX TEMP: 100;

NEW BRAUNFELS  CLOUDY    86  68  54 NW12      29.84F
6HR MIN TEMP:  85; 6HR MAX TEMP: 102;

RANDOLPH AFB   CLOUDY    85  69  59 NW13      29.86F
6HR MIN TEMP:  85; 6HR MAX TEMP: 101; 6HR PCP: TRACE;

PT SAN ANTONIO NOT AVBL
SAN ANTONIO    CLOUDY    86  64  47 NW9       29.87F
6HR MIN TEMP:  83; 6HR MAX TEMP: 101;

STINSON FIELD  MOSUNNY   89  65  44 N9        29.84F HX  91
6HR MIN TEMP:  88; 6HR MAX TEMP: 104;

*LA GRANGE     SUNNY     96  72  45 S10       29.82S HX 104
6HR MIN TEMP:  95; 6HR MAX TEMP: 100;

*GIDDINGS      SUNNY     96  64  34 SW7       29.85S HX  97
6HR MIN TEMP:  94; 6HR MAX TEMP:  99;

*GONZALES      SUNNY     97  72  43 S8        29.83S HX 105
6HR MIN TEMP:  95; 6HR MAX TEMP: 100;

$$

TXZ163>164-176>182-195>201-210>213-226-227-235-240100-
SOUTHEAST TEXAS

CITY           SKY/WX    TMP DP  RH WIND       PRES   REMARKS
COLLEGE STN    SUNNY     95  69  42 SW8       29.84R HX 100
6HR MIN TEMP:  94; 6HR MAX TEMP: 100;

*BRYAN         CLOUDY    94  68  42 S7        29.85S HX  98
6HR MIN TEMP:  93; 6HR MAX TEMP: 100;

*CALDWELL      NOT AVBL
*CROCKETT      PTSUNNY   84  75  74 CALM      29.88S HX  92
*BRENHAM       SUNNY     96  69  41 S12       29.85R HX 101
6HR MIN TEMP:  95; 6HR MAX TEMP: 100;

HUNTSVILLE     MOSUNNY   92  71  50 S12       29.85F HX  98
6HR MIN TEMP:  91; 6HR MAX TEMP:  94;

CONROE         MOSUNNY   90  74  59 SE9       29.87S HX  99
6HR MIN TEMP:  78; 6HR MAX TEMP:  94; 6HR PCP: TRACE;

HOUSTON BUSH   CLOUDY    92  73  53 S10       29.86S HX 100
6HR MIN TEMP:  83; 6HR MAX TEMP:  94; 6HR PCP:  0.17;

HOUSTON HOBBY  PTSUNNY   90  73  57 S15G22    29.87S HX  98
6HR MIN TEMP:  90; 6HR MAX TEMP:  95;

*HOUSTON SW AP PTSUNNY   86  74  67 S7        29.89S HX  95
6HR MIN TEMP:  86; 6HR MAX TEMP:  93;

PEARLAND       PTSUNNY   90  73  57 S12G24    29.89S HX  98
6HR MIN TEMP:  90; 6HR MAX TEMP:  95;

HOUSTON HOOKS  PTSUNNY   91  73  55 S9        29.86S HX  99
6HR MIN TEMP:  87; 6HR MAX TEMP:  94;

ELLINGTON FLD  PTSUNNY   91  73  55 S13       29.89F HX 100
SUGAR LAND     PTSUNNY   89  74  60 S14G20    29.88R HX  98
6HR MIN TEMP:  89; 6HR MAX TEMP:  95;

*HOUSTON EXEC  PTSUNNY   91  73  55 S17       29.88S HX 100
*CLEVELAND MUN PTSUNNY   90  76  64 S8        29.87F HX 101
6HR MIN TEMP:  86; 6HR MAX TEMP:  94;

*WHARTON       SUNNY     88  69  53 S14       29.90R HX  92
6HR MIN TEMP:  88; 6HR MAX TEMP:  96;

*COLUMBUS      FAIR      91  69  47 S10G20    29.87S HX  95
6HR MIN TEMP:  91; 6HR MAX TEMP:  98;

*EAGLE LAKE    CLEAR     92  74  55 S14G22    29.86S HX 102
6HR MIN TEMP:  92; 6HR MAX TEMP:  98;

$$

TXZ214>216-236>238-240100-
THE UPPER TEXAS COAST

CITY           SKY/WX    TMP DP  RH WIND       PRES   REMARKS
*ORANGE        CLOUDY    78  77  97 CALM      29.92R
6HR MIN TEMP:  75; 6HR MAX TEMP:  87; 6HR PCP:  0.06;

PORT ARTHUR    CLOUDY    83  75  77 SW8       29.90R HX  90
6HR MIN TEMP:  73; 6HR MAX TEMP:  88; 6HR PCP:  0.18;

GALVESTON      CLOUDY    86  76  71 S13       29.91S HX  96
6HR MIN TEMP:  86; 6HR MAX TEMP:  91;

ANGLETON       MOSUNNY   87  75  67 S13       29.90S HX  96
6HR MIN TEMP:  87; 6HR MAX TEMP:  93;

*BAY CITY      SUNNY     88  75  65 S17       29.89F HX  98
PALACIOS       NOT AVBL
$$

TXZ229>234-239>247-240100-
TEXAS COASTAL BEND AND RIO GRANDE PLAINS

CITY           SKY/WX    TMP DP  RH WIND       PRES   REMARKS
VICTORIA       PTSUNNY   91  73  55 S18       29.87R HX  99
6HR MIN TEMP:  91; 6HR MAX TEMP:  98;

*BEEVILLE      SUNNY     93  75  55 SE15G23   29.83F HX 104
6HR MIN TEMP:  93; 6HR MAX TEMP: 101;

ROCKPORT       SUNNY     88  74  63 S16G25    29.86S HX  96
6HR MIN TEMP:  88; 6HR MAX TEMP:  93;

*PORT ARANSAS  SUNNY     86  75  70 S18G26    29.87R HX  94
6HR MIN TEMP:  86; 6HR MAX TEMP:  89;

*PORT LAVACA   SUNNY     87  73  62 S15       29.88S HX  95
6HR MIN TEMP:  87; 6HR MAX TEMP:  92;

*INGLESIDE     SUNNY     89  76  64 MISG      29.86S HX  99
CORPUS CHRISTI SUNNY     89  74  60 SE21G26   29.85R HX  98
6HR MIN TEMP:  89; 6HR MAX TEMP:  96;

CORPUS NAS     SUNNY     89  76  65 S24G32    29.86R HX 100
6HR MIN TEMP:  89; 6HR MAX TEMP:  94;

*ROBSTOWN      SUNNY     92  73  52 S21       29.85R HX 100
6HR MIN TEMP:  92; 6HR MAX TEMP: 100;

ALICE          LGT RAIN  93  72  50 SE17G28   29.83R HX 101
6HR MIN TEMP:  93; 6HR MAX TEMP: 103; 6HR PCP: TRACE;

KINGSVILLE NAS SUNNY     92  76  59 SE15G28   29.84R HX 104
6HR MIN TEMP:  92; 6HR MAX TEMP: 104;

COTULLA        MOSUNNY  101  56  22 SE12      29.79S HX 100
6HR MIN TEMP:  95; 6HR MAX TEMP: 105;

*FAITH RANCH   MOSUNNY  102  57  22 SE10G16   29.79F HX 101
LAREDO         MOSUNNY  103  62  26 SE14      29.80S HX 105
6HR MIN TEMP:  95; 6HR MAX TEMP: 104;

$$

TXZ248>255-240100-
DEEP SOUTH TEXAS

CITY           SKY/WX    TMP DP  RH WIND       PRES   REMARKS
BROWNSVILLE    LGT RAIN  87  76  69 SE21G30   29.86S HX  97
6HR MIN TEMP:  87; 6HR MAX TEMP:  93; 6HR PCP: TRACE;

PORT ISABEL    MOSUNNY   89  76  65 S22G31    29.86R HX 100
6HR MIN TEMP:  89; 6HR MAX TEMP:  96;

*SOUTH PADRE   NOT AVBL
HARLINGEN      SUNNY     91  73  55 SE24G32   29.83R HX  99
6HR MIN TEMP:  91; 6HR MAX TEMP:  98;

*HEBBRONV



USA.gov is the U.S. government's official web portal to all federal, state and local government web resources and services.